Weather History for Montague, CA

Change the Weather History Date:

Friday, February 1, 2013

  Actual Average Record
Temperature  
Mean Temperature 36 °F 36 °F  
Max Temperature 49 °F 47 °F 62 °F (1995)
Min Temperature 22 °F 26 °F -9 °F (1950)
Degree Days  
Heating Degree Days 29 29  
Month to date heating degree days 29 29  
Since 1 July heating degree days 2993 3181  
Cooling Degree Days 0 0  
Month to date cooling degree days 0 0  
Year to date cooling degree days 0 0  
Moisture  
Dew Point 25 °F    
Average Humidity 87    
Maximum Humidity 100    
Minimum Humidity 50    
Precipitation  
Precipitation 0.00 in 0.05 in 1.02 in (1995)
Month to date precipitation 0.00 0.05  
Year to date precipitation 0.71 2.25  
Sea Level Pressure  
Sea Level Pressure 30.36 in    
Wind  
Wind Speed 2 mph (South)    
Max Wind Speed 7 mph    
Max Gust Speed 13 mph    
Visibility 4 miles    
Events Fog    
T = Trace of Precipitation, MM = Missing Value Source: NWS Daily Summary

Daily Weather History Graph

Daily Weather History Graph

Search for Another Location

Airport:

Trip Planner

Search our weather history database for the weather conditions in past years. The results will help you decide how hot, cold, wet, or windy it might be!

Date:

Astronomy

Feb. 01, 2013 Rise Set
Actual Time 7:21 AM PST 5:25 PM PST
Civil Twilight 6:52 AM PST 5:55 PM PST
Nautical Twilight 6:19 AM PST 6:28 PM PST
Astronomical Twilight 5:46 AM PST 7:01 PM PST
Moon 11:45 PM PST (2/1) 9:52 AM PST (2/1)
Length of Visible Light 11h 02m
Length of Day
10h 03m
Waning Gibbous, 69% of the Moon is Illuminated
Feb 1
Waning Gibbous
Feb 3
Last Quarter
Feb 9
New
Feb 17
First Quarter
Feb 25
Full

Hourly Weather History & Observations

Time (PST) Temp. Windchill Dew Point Humidity Pressure Visibility Wind Dir Wind Speed Gust Speed Precip Events Conditions
12:34 AM 26.6 °F - 23.0 °F 86% 30.32 in 1.5 mi Calm Calm - N/A   Partly Cloudy
12:37 AM 26.6 °F - 24.8 °F 93% 30.32 in 0.8 mi Calm Calm - N/A   Mist
12:53 AM 25.0 °F - 23.0 °F 92% 30.42 in 0.5 mi Calm Calm - N/A Fog Light Freezing Fog
12:56 AM 24.8 °F - 23.0 °F 93% 30.33 in 0.2 mi Calm Calm - N/A Fog Light Freezing Fog
1:45 AM 24.8 °F - 21.2 °F 86% 30.33 in 0.2 mi Calm Calm - N/A Fog Light Freezing Fog
1:59 AM 24.8 °F - 23.0 °F 93% 30.33 in 2.0 mi Calm Calm - N/A   Overcast
2:06 AM 24.8 °F - 21.2 °F 86% 30.33 in 4.0 mi Calm Calm - N/A   Overcast
2:12 AM 24.8 °F - 23.0 °F 93% 30.33 in 1.5 mi Calm Calm - N/A   Overcast
2:14 AM 24.8 °F - 23.0 °F 93% 30.33 in 0.8 mi Calm Calm - N/A   Mist
2:24 AM 24.8 °F - 21.2 °F 86% 30.33 in 0.2 mi Calm Calm - N/A Fog Light Freezing Fog
2:53 AM 23.0 °F - 21.9 °F 96% 30.42 in 0.2 mi Calm Calm - N/A Fog Light Freezing Fog
3:06 AM 23.0 °F - 21.2 °F 93% 30.33 in 0.5 mi Calm Calm - N/A Fog Light Freezing Fog
3:17 AM 23.0 °F - 21.2 °F 93% 30.32 in 0.2 mi Calm Calm - N/A Fog Light Freezing Fog
3:46 AM 24.8 °F - 21.2 °F 86% 30.32 in 0.2 mi Calm Calm - N/A Fog Light Freezing Fog
3:53 AM 24.1 °F - 21.9 °F 91% 30.41 in 0.2 mi Calm Calm - N/A Fog Light Freezing Fog
4:01 AM 24.8 °F 20.5 °F 21.2 °F 86% 30.32 in 0.5 mi East 3.5 mph - N/A Fog Light Freezing Fog
4:09 AM 24.8 °F - 21.2 °F 86% 30.32 in 0.2 mi Calm Calm - N/A Fog Light Freezing Fog
4:53 AM 24.1 °F - 21.0 °F 88% 30.40 in 0.2 mi Calm Calm - N/A Fog Light Freezing Fog
5:41 AM 23.0 °F - 19.4 °F 86% 30.32 in 0.8 mi Calm Calm - N/A   Mist
5:51 AM 23.0 °F - 21.2 °F 93% 30.32 in 0.5 mi Calm Calm - N/A Fog Light Freezing Fog
5:53 AM 24.1 °F - 21.9 °F 91% 30.42 in 0.2 mi Calm Calm - N/A Fog Light Freezing Fog
6:07 AM 24.8 °F - 21.2 °F 86% 30.32 in 0.2 mi Calm Calm - N/A Fog Light Freezing Fog
6:53 AM 24.1 °F - 21.0 °F 88% 30.43 in 0.2 mi Calm Calm - N/A Fog Light Freezing Fog
7:53 AM 24.1 °F - 23.0 °F 96% 30.44 in 0.2 mi Calm Calm - N/A Fog Light Freezing Fog
8:53 AM 25.0 °F - 24.1 °F 96% 30.45 in 0.2 mi Calm Calm - N/A Fog Light Freezing Fog
9:53 AM 27.0 °F - 25.0 °F 92% 30.45 in 0.2 mi Calm Calm - N/A Fog Light Freezing Fog
10:25 AM 28.4 °F 23.3 °F 28.4 °F 100% 30.35 in 0.2 mi SW 4.6 mph - N/A Fog Light Freezing Fog
10:35 AM 30.2 °F 25.4 °F 28.4 °F 93% 30.35 in 1.0 mi SSW 4.6 mph - N/A   Mist
10:53 AM 30.0 °F 25.2 °F 28.0 °F 92% 30.45 in 1.2 mi SSW 4.6 mph - N/A   Overcast
11:02 AM 30.2 °F 25.4 °F 30.2 °F 100% 30.35 in 3.0 mi SW 4.6 mph - N/A   Overcast
11:53 AM 32.0 °F 26.4 °F 32.0 °F 100% 30.43 in 6.0 mi South 5.8 mph - N/A   Overcast
12:22 PM 35.6 °F - 33.8 °F 93% 30.31 in 10.0 mi Calm Calm - N/A   Scattered Clouds
12:53 PM 37.9 °F 34.4 °F 34.0 °F 86% 30.38 in 10.0 mi South 4.6 mph - N/A   Clear
1:53 PM 44.1 °F 41.5 °F 34.0 °F 68% 30.35 in 10.0 mi Variable 4.6 mph - N/A   Clear
2:53 PM 46.9 °F - 34.0 °F 61% 30.33 in 10.0 mi SSW 3.5 mph - N/A   Clear
3:53 PM 48.9 °F - 30.9 °F 50% 30.32 in 10.0 mi South 4.6 mph - N/A   Clear
4:53 PM 48.0 °F - 33.1 °F 56% 30.32 in 10.0 mi Calm Calm - N/A   Clear
5:53 PM 37.0 °F 33.3 °F 30.9 °F 79% 30.34 in 10.0 mi SE 4.6 mph - N/A   Clear
6:53 PM 35.1 °F 32.2 °F 28.9 °F 78% 30.36 in 10.0 mi East 3.5 mph - N/A   Clear
7:53 PM 32.0 °F 28.7 °F 28.0 °F 85% 30.38 in 10.0 mi North 3.5 mph - N/A   Clear
8:53 PM 30.9 °F - 27.0 °F 85% 30.40 in 10.0 mi Calm Calm - N/A   Clear
9:53 PM 28.9 °F 25.2 °F 26.1 °F 89% 30.41 in 10.0 mi East 3.5 mph - N/A   Clear
10:53 PM 30.0 °F - 26.1 °F 85% 30.41 in 10.0 mi Calm Calm - N/A   Clear
11:53 PM 27.0 °F - 25.0 °F 92% 30.41 in 10.0 mi Calm Calm - N/A   Clear